| time (UTC) | temp F | wind direction | speed MPH | gust MPH | rain 1hr in | rain 24hr in | rain mn in | humidity % | barometer mb |
| 20260510211529 | 54 | 144 | 0.0 | 0.0 | 0.00 | 0.00 | 0.00 | 62 | 1009.7 |
| 20260510211024 | 54 | 144 | 0.0 | 0.0 | 0.00 | 0.00 | 0.00 | 62 | 1009.8 |
| 20260510210522 | 54 | 144 | 0.0 | 0.0 | 0.00 | 0.00 | 0.00 | 62 | 1009.8 |
| 20260510210026 | 54 | 144 | 0.0 | 0.0 | 0.00 | 0.00 | 0.00 | 62 | 1009.9 |
| 20260510205520 | 54 | 144 | 0.0 | 0.0 | 0.00 | 0.00 | 0.00 | 62 | 1009.9 |
| 20260510205020 | 54 | 144 | 0.0 | 0.0 | 0.00 | 0.00 | 0.00 | 62 | 1010.0 |
| 20260510204518 | 54 | 144 | 0.0 | 2.0 | 0.00 | 0.00 | 0.00 | 62 | 1010.1 |
| 20260510204019 | 54 | 144 | 0.0 | 3.0 | 0.00 | 0.00 | 0.00 | 63 | 1010.1 |
| 20260510203517 | 54 | 144 | 0.0 | 2.0 | 0.00 | 0.00 | 0.00 | 63 | 1010.2 |
| 20260510203019 | 54 | 144 | 0.0 | 2.0 | 0.00 | 0.00 | 0.00 | 64 | 1010.3 |
| 20260510202516 | 53 | 144 | 0.0 | 4.0 | 0.00 | 0.00 | 0.00 | 64 | 1010.3 |
| 20260510202016 | 53 | 144 | 0.0 | 3.0 | 0.00 | 0.00 | 0.00 | 65 | 1010.3 |
| 20260510201515 | 54 | 147 | 0.0 | 0.0 | 0.00 | 0.00 | 0.00 | 64 | 1010.4 |
| 20260510201016 | 54 | 147 | 0.0 | 0.0 | 0.00 | 0.00 | 0.00 | 64 | 1010.4 |
| 20260510200515 | 54 | 147 | 0.0 | 0.0 | 0.00 | 0.00 | 0.00 | 64 | 1010.5 |
| 20260510200016 | 54 | 147 | 0.0 | 0.0 | 0.00 | 0.00 | 0.00 | 63 | 1010.5 |
| 20260510195515 | 55 | 147 | 0.0 | 0.0 | 0.00 | 0.00 | 0.00 | 62 | 1010.5 |
| 20260510195018 | 55 | 147 | 0.0 | 0.0 | 0.00 | 0.00 | 0.00 | 62 | 1010.5 |
| 20260510194514 | 55 | 147 | 0.0 | 0.0 | 0.00 | 0.00 | 0.00 | 62 | 1010.5 |
| 20260510194014 | 55 | 147 | 0.0 | 0.0 | 0.00 | 0.00 | 0.00 | 61 | 1010.6 |
| 20260510193515 | 55 | 147 | 0.0 | 0.0 | 0.00 | 0.00 | 0.00 | 60 | 1010.5 |
| 20260510193120 | 55 | 147 | 0.0 | 0.0 | 0.00 | 0.00 | 0.00 | 60 | 1010.6 |
| 20260510192514 | 56 | 147 | 0.0 | 0.0 | 0.00 | 0.00 | 0.00 | 59 | 1010.5 |
| 20260510192015 | 56 | 147 | 0.0 | 0.0 | 0.00 | 0.00 | 0.00 | 59 | 1010.6 |
| 20260510191514 | 56 | 147 | 0.0 | 0.0 | 0.00 | 0.00 | 0.00 | 59 | 1010.5 |
| 20260510191013 | 56 | 147 | 0.0 | 0.0 | 0.00 | 0.00 | 0.00 | 59 | 1010.6 |
| 20260510190515 | 57 | 147 | 0.0 | 0.0 | 0.00 | 0.00 | 0.00 | 57 | 1010.7 |
| 20260510190032 | 58 | 147 | 0.0 | 0.0 | 0.00 | 0.00 | 0.00 | 56 | 1010.7 |
| 20260510185512 | 58 | 147 | 0.0 | 0.0 | 0.00 | 0.00 | 0.00 | 54 | 1010.6 |
| 20260510185012 | 59 | 147 | 0.0 | 0.0 | 0.00 | 0.00 | 0.00 | 53 | 1010.6 |
| 20260510184513 | 59 | 147 | 0.0 | 0.0 | 0.00 | 0.00 | 0.00 | 51 | 1010.6 |
| 20260510184012 | 60 | 147 | 0.0 | 0.0 | 0.00 | 0.00 | 0.00 | 50 | 1010.5 |
| 20260510183513 | 60 | 147 | 0.0 | 0.0 | 0.00 | 0.00 | 0.00 | 50 | 1010.6 |
| 20260510183014 | 60 | 147 | 0.0 | 0.0 | 0.00 | 0.00 | 0.00 | 49 | 1010.6 |
| 20260510182515 | 61 | 147 | 0.0 | 0.0 | 0.00 | 0.00 | 0.00 | 48 | 1010.6 |
| 20260510182011 | 61 | 147 | 0.0 | 0.0 | 0.00 | 0.00 | 0.00 | 48 | 1010.6 |
| 20260510181512 | 61 | 147 | 0.0 | 0.0 | 0.00 | 0.00 | 0.00 | 47 | 1010.5 |
| 20260510181011 | 62 | 147 | 0.0 | 0.0 | 0.00 | 0.00 | 0.00 | 47 | 1010.5 |
| 20260510180511 | 62 | 147 | 0.0 | 0.0 | 0.00 | 0.00 | 0.00 | 47 | 1010.5 |
| 20260510180017 | 62 | 147 | 0.0 | 2.0 | 0.00 | 0.00 | 0.00 | 46 | 1010.5 |
| 20260510175510 | 63 | 147 | 0.0 | 2.0 | 0.00 | 0.00 | 0.00 | 46 | 1010.5 |
| 20260510175009 | 63 | 147 | 0.0 | 5.0 | 0.00 | 0.00 | 0.00 | 45 | 1010.6 |
| 20260510174508 | 63 | 147 | 0.0 | 8.0 | 0.00 | 0.00 | 0.00 | 44 | 1010.7 |
| 20260510174009 | 64 | 153 | 2.0 | 17.0 | 0.00 | 0.00 | 0.00 | 44 | 1010.7 |
| 20260510173507 | 64 | 163 | 4.0 | 17.0 | 0.00 | 0.00 | 0.00 | 43 | 1010.7 |
| 20260510173006 | 64 | 171 | 3.0 | 14.0 | 0.00 | 0.00 | 0.00 | 44 | 1010.7 |
| 20260510172005 | 65 | 161 | 4.0 | 14.0 | 0.00 | 0.00 | 0.00 | 45 | 1010.8 |
| 20260510171507 | 65 | 133 | 8.0 | 14.0 | 0.00 | 0.00 | 0.00 | 44 | 1010.8 |
| 20260510171004 | 65 | 159 | 2.0 | 12.0 | 0.00 | 0.00 | 0.00 | 45 | 1010.9 |
| 20260510170504 | 65 | 162 | 4.0 | 13.0 | 0.00 | 0.00 | 0.00 | 44 | 1010.9 |
| 20260510170005 | 65 | 193 | 5.0 | 13.0 | 0.00 | 0.00 | 0.00 | 44 | 1010.9 |
| 20260510165504 | 66 | 127 | 4.0 | 18.0 | 0.00 | 0.00 | 0.00 | 44 | 1011.0 |
| 20260510165004 | 66 | 98 | 8.0 | 18.0 | 0.00 | 0.00 | 0.00 | 43 | 1011.0 |
| 20260510164502 | 66 | 132 | 7.0 | 13.0 | 0.00 | 0.00 | 0.00 | 43 | 1011.1 |
| 20260510164002 | 67 | 157 | 5.0 | 14.0 | 0.00 | 0.00 | 0.00 | 43 | 1011.1 |
| 20260510163501 | 67 | 161 | 3.0 | 20.0 | 0.00 | 0.00 | 0.00 | 42 | 1011.2 |
| 20260510163102 | 67 | 178 | 9.0 | 20.0 | 0.00 | 0.00 | 0.00 | 42 | 1011.3 |
| 20260510162559 | 67 | 157 | 8.0 | 16.0 | 0.00 | 0.00 | 0.00 | 43 | 1011.3 |
| 20260510162059 | 67 | 184 | 5.0 | 16.0 | 0.00 | 0.00 | 0.00 | 43 | 1011.4 |
| 20260510161559 | 67 | 202 | 3.0 | 9.0 | 0.00 | 0.00 | 0.00 | 42 | 1011.4 |
| 20260510161059 | 67 | 173 | 4.0 | 11.0 | 0.00 | 0.00 | 0.00 | 43 | 1011.5 |
| 20260510160601 | 67 | 174 | 1.0 | 12.0 | 0.00 | 0.00 | 0.00 | 43 | 1011.6 |
| 20260510160100 | 67 | 150 | 6.0 | 17.0 | 0.00 | 0.00 | 0.00 | 42 | 1011.7 |
| 20260510155556 | 67 | 182 | 7.0 | 17.0 | 0.00 | 0.00 | 0.00 | 42 | 1011.7 |
| 20260510155056 | 68 | 162 | 6.0 | 11.0 | 0.00 | 0.00 | 0.00 | 42 | 1011.8 |
| 20260510154602 | 68 | 158 | 4.0 | 11.0 | 0.00 | 0.00 | 0.00 | 41 | 1011.8 |
| 20260510154057 | 68 | 360 | 0.0 | 7.0 | 0.00 | 0.00 | 0.00 | 41 | 1011.7 |
| 20260510153554 | 68 | 297 | 2.0 | 12.0 | 0.00 | 0.00 | 0.00 | 40 | 1011.8 |
| 20260510153054 | 68 | 258 | 4.0 | 16.0 | 0.00 | 0.00 | 0.00 | 39 | 1011.8 |
| 20260510152553 | 68 | 175 | 1.0 | 16.0 | 0.00 | 0.00 | 0.00 | 40 | 1011.9 |
| 20260510152155 | 68 | 152 | 7.0 | 11.0 | 0.00 | 0.00 | 0.00 | 40 | 1012.0 |
| 20260510151555 | 68 | 197 | 3.0 | 14.0 | 0.00 | 0.00 | 0.00 | 39 | 1011.9 |
| 20260510151052 | 68 | 219 | 6.0 | 14.0 | 0.00 | 0.00 | 0.00 | 39 | 1012.0 |
| 20260510150551 | 68 | 196 | 6.0 | 12.0 | 0.00 | 0.00 | 0.00 | 39 | 1012.1 |
| 20260510150119 | 69 | 155 | 0.0 | 18.0 | 0.00 | 0.00 | 0.00 | 38 | 1012.2 |
| 20260510145553 | 68 | 136 | 8.0 | 18.0 | 0.00 | 0.00 | 0.00 | 38 | 1012.3 |
| 20260510145051 | 69 | 213 | 7.0 | 16.0 | 0.00 | 0.00 | 0.00 | 38 | 1012.3 |
| 20260510144608 | 70 | 196 | 1.0 | 8.0 | 0.00 | 0.00 | 0.00 | 38 | 1012.4 |
| 20260510144051 | 70 | 190 | 0.0 | 5.0 | 0.00 | 0.00 | 0.00 | 37 | 1012.4 |
| 20260510143550 | 69 | 103 | 1.0 | 10.0 | 0.00 | 0.00 | 0.00 | 38 | 1012.5 |
| 20260510143047 | 70 | 143 | 2.0 | 11.0 | 0.00 | 0.00 | 0.00 | 37 | 1012.6 |
| 20260510142546 | 70 | 37 | 5.0 | 13.0 | 0.00 | 0.00 | 0.00 | 38 | 1012.6 |
| 20260510142046 | 70 | 42 | 0.0 | 10.0 | 0.00 | 0.00 | 0.00 | 38 | 1012.7 |
| 20260510141546 | 70 | 159 | 4.0 | 12.0 | 0.00 | 0.00 | 0.00 | 38 | 1012.8 |
| 20260510141044 | 70 | 165 | 6.0 | 14.0 | 0.00 | 0.00 | 0.00 | 39 | 1012.8 |
| 20260510140543 | 70 | 64 | 2.0 | 15.0 | 0.00 | 0.00 | 0.00 | 39 | 1012.8 |
| 20260510140043 | 69 | 140 | 5.0 | 15.0 | 0.00 | 0.00 | 0.00 | 41 | 1012.9 |
| 20260510135543 | 68 | 207 | 4.0 | 18.0 | 0.00 | 0.00 | 0.00 | 40 | 1013.0 |
| 20260510135043 | 67 | 114 | 7.0 | 18.0 | 0.00 | 0.00 | 0.00 | 42 | 1013.1 |
| 20260510134547 | 68 | 151 | 7.0 | 15.0 | 0.00 | 0.00 | 0.00 | 41 | 1013.2 |
| 20260510134041 | 69 | 191 | 4.0 | 12.0 | 0.00 | 0.00 | 0.00 | 41 | 1013.2 |
| 20260510133540 | 67 | 245 | 6.0 | 17.0 | 0.00 | 0.00 | 0.00 | 41 | 1013.2 |
| 20260510133045 | 68 | 239 | 6.0 | 17.0 | 0.00 | 0.00 | 0.00 | 41 | 1013.3 |
| 20260510132539 | 68 | 200 | 9.0 | 16.0 | 0.00 | 0.00 | 0.00 | 41 | 1013.3 |
| 20260510132038 | 67 | 279 | 5.0 | 14.0 | 0.00 | 0.00 | 0.00 | 43 | 1013.3 |
| 20260510131038 | 67 | 234 | 8.0 | 14.0 | 0.00 | 0.00 | 0.00 | 41 | 1013.6 |
| 20260510130536 | 68 | 227 | 6.0 | 15.0 | 0.00 | 0.00 | 0.00 | 42 | 1013.7 |
| 20260510130037 | 67 | 297 | 7.0 | 15.0 | 0.00 | 0.00 | 0.00 | 44 | 1013.8 |
| 20260510125535 | 67 | 141 | 2.0 | 16.0 | 0.00 | 0.00 | 0.00 | 42 | 1013.9 |
| 20260510125135 | 67 | 214 | 6.0 | 16.0 | 0.00 | 0.00 | 0.00 | 43 | 1014.0 |
| 20260510124534 | 66 | 152 | 7.0 | 13.0 | 0.00 | 0.00 | 0.00 | 42 | 1014.1 |
| 20260510124033 | 66 | 162 | 7.0 | 17.0 | 0.00 | 0.00 | 0.00 | 42 | 1014.1 |
| 20260510123533 | 67 | 219 | 10.0 | 17.0 | 0.00 | 0.00 | 0.00 | 44 | 1014.1 |
| 20260510123032 | 69 | 207 | 5.0 | 15.0 | 0.00 | 0.00 | 0.00 | 43 | 1014.2 |
| 20260510122531 | 69 | 57 | 0.0 | 17.0 | 0.00 | 0.00 | 0.00 | 43 | 1014.2 |
| 20260510122031 | 68 | 53 | 6.0 | 15.0 | 0.00 | 0.00 | 0.00 | 45 | 1014.2 |
| 20260510121532 | 69 | 355 | 3.0 | 13.0 | 0.00 | 0.00 | 0.00 | 43 | 1014.3 |
| 20260510121030 | 66 | 5 | 2.0 | 17.0 | 0.00 | 0.00 | 0.00 | 46 | 1014.3 |
| 20260510120531 | 66 | 229 | 10.0 | 17.0 | 0.00 | 0.00 | 0.00 | 46 | 1014.5 |
| 20260510120029 | 67 | 286 | 4.0 | 16.0 | 0.00 | 0.00 | 0.00 | 45 | 1014.5 |
| 20260510115528 | 66 | 214 | 7.0 | 16.0 | 0.00 | 0.00 | 0.00 | 47 | 1014.6 |
| 20260510115030 | 67 | 259 | 4.0 | 12.0 | 0.00 | 0.00 | 0.00 | 47 | 1014.6 |
| 20260510114536 | 67 | 236 | 7.0 | 12.0 | 0.00 | 0.00 | 0.00 | 45 | 1014.7 |
| 20260510114026 | 66 | 197 | 5.0 | 18.0 | 0.00 | 0.00 | 0.00 | 46 | 1014.7 |
| 20260510113528 | 65 | 206 | 11.0 | 19.0 | 0.00 | 0.00 | 0.00 | 45 | 1014.8 |
| 20260510113033 | 67 | 225 | 10.0 | 15.0 | 0.00 | 0.00 | 0.00 | 45 | 1014.8 |
| 20260510112524 | 68 | 346 | 2.0 | 13.0 | 0.00 | 0.00 | 0.00 | 45 | 1015.0 |
| 20260510112023 | 68 | 290 | 4.0 | 13.0 | 0.00 | 0.00 | 0.00 | 42 | 1015.0 |
| 20260510111527 | 66 | 104 | 2.0 | 13.0 | 0.00 | 0.00 | 0.00 | 43 | 1015.1 |
| 20260510110524 | 65 | 28 | 4.0 | 13.0 | 0.00 | 0.00 | 0.00 | 44 | 1015.2 |
| 20260510110034 | 66 | 180 | 3.0 | 13.0 | 0.00 | 0.00 | 0.00 | 46 | 1015.3 |
| 20260510105519 | 64 | 212 | 7.0 | 18.0 | 0.00 | 0.00 | 0.00 | 46 | 1015.4 |
| 20260510105020 | 65 | 243 | 9.0 | 18.0 | 0.00 | 0.00 | 0.00 | 46 | 1015.4 |
| 20260510104519 | 65 | 122 | 3.0 | 11.0 | 0.00 | 0.00 | 0.00 | 45 | 1015.3 |
| 20260510104017 | 64 | 253 | 5.0 | 15.0 | 0.00 | 0.00 | 0.00 | 45 | 1015.5 |
| 20260510103520 | 64 | 285 | 10.0 | 15.0 | 0.00 | 0.00 | 0.00 | 46 | 1015.5 |
| 20260510103017 | 65 | 281 | 2.0 | 19.0 | 0.00 | 0.00 | 0.00 | 46 | 1015.5 |
| 20260510102516 | 64 | 234 | 9.0 | 28.0 | 0.00 | 0.00 | 0.00 | 46 | 1015.6 |
| 20260510102016 | 64 | 201 | 8.0 | 28.0 | 0.00 | 0.00 | 0.00 | 48 | 1015.7 |
| 20260510101515 | 64 | 215 | 2.0 | 17.0 | 0.00 | 0.00 | 0.00 | 47 | 1015.8 |
| 20260510101014 | 65 | 255 | 10.0 | 17.0 | 0.00 | 0.00 | 0.00 | 46 | 1015.9 |
| 20260510100512 | 65 | 340 | 1.0 | 15.0 | 0.00 | 0.00 | 0.00 | 47 | 1015.8 |
| 20260510100012 | 64 | 287 | 7.0 | 15.0 | 0.00 | 0.00 | 0.00 | 47 | 1015.9 |
| 20260510095512 | 64 | 269 | 8.0 | 15.0 | 0.00 | 0.00 | 0.00 | 47 | 1016.0 |
| 20260510095110 | 64 | 221 | 7.0 | 15.0 | 0.00 | 0.00 | 0.00 | 48 | 1016.0 |
| 20260510094511 | 64 | 244 | 4.0 | 15.0 | 0.00 | 0.00 | 0.00 | 48 | 1016.1 |
| 20260510094009 | 63 | 175 | 4.0 | 13.0 | 0.00 | 0.00 | 0.00 | 48 | 1016.2 |
| 20260510093512 | 63 | 254 | 6.0 | 13.0 | 0.00 | 0.00 | 0.00 | 47 | 1016.1 |
| 20260510093007 | 64 | 170 | 2.0 | 8.0 | 0.00 | 0.00 | 0.00 | 48 | 1016.0 |
| 20260510092506 | 62 | 266 | 1.0 | 11.0 | 0.00 | 0.00 | 0.00 | 51 | 1016.0 |
| 20260510092009 | 62 | 265 | 6.0 | 15.0 | 0.00 | 0.00 | 0.00 | 52 | 1016.1 |
| 20260510091505 | 61 | 246 | 8.0 | 14.0 | 0.00 | 0.00 | 0.00 | 54 | 1016.3 |
| 20260510091004 | 61 | 323 | 2.0 | 14.0 | 0.00 | 0.00 | 0.00 | 53 | 1016.3 |
| 20260510090503 | 61 | 163 | 4.0 | 14.0 | 0.00 | 0.00 | 0.00 | 53 | 1016.3 |
| 20260510090003 | 62 | 211 | 8.0 | 14.0 | 0.00 | 0.00 | 0.00 | 53 | 1016.3 |
| 20260510085501 | 62 | 180 | 7.0 | 15.0 | 0.00 | 0.00 | 0.00 | 54 | 1016.4 |
| 20260510085100 | 61 | 218 | 7.0 | 12.0 | 0.00 | 0.00 | 0.00 | 53 | 1016.5 |
| 20260510084559 | 61 | 273 | 7.0 | 15.0 | 0.00 | 0.00 | 0.00 | 56 | 1016.5 |
| 20260510084059 | 61 | 284 | 7.0 | 21.0 | 0.00 | 0.00 | 0.00 | 54 | 1016.6 |
| 20260510083558 | 62 | 342 | 11.0 | 21.0 | 0.00 | 0.00 | 0.00 | 54 | 1016.6 |
| 20260510083059 | 62 | 281 | 9.0 | 17.0 | 0.00 | 0.00 | 0.00 | 55 | 1016.7 |
| 20260510082558 | 61 | 216 | 10.0 | 17.0 | 0.00 | 0.00 | 0.00 | 56 | 1016.8 |
| 20260510082055 | 61 | 302 | 3.0 | 13.0 | 0.00 | 0.00 | 0.00 | 56 | 1016.8 |
| 20260510081554 | 61 | 249 | 9.0 | 17.0 | 0.00 | 0.00 | 0.00 | 55 | 1016.9 |
| 20260510081052 | 60 | 284 | 10.0 | 24.0 | 0.00 | 0.00 | 0.00 | 56 | 1016.9 |
| 20260510080555 | 61 | 307 | 10.0 | 24.0 | 0.00 | 0.00 | 0.00 | 56 | 1017.1 |
| 20260510080055 | 60 | 340 | 7.0 | 20.0 | 0.00 | 0.00 | 0.00 | 56 | 1017.0 |
| 20260510075548 | 61 | 313 | 5.0 | 14.0 | 0.00 | 0.00 | 0.00 | 58 | 1017.1 |
| 20260510075048 | 60 | 279 | 5.0 | 16.0 | 0.00 | 0.00 | 0.00 | 58 | 1017.1 |
| 20260510074549 | 60 | 306 | 12.0 | 16.0 | 0.00 | 0.00 | 0.00 | 56 | 1017.1 |
| 20260510074045 | 60 | 305 | 7.0 | 16.0 | 0.00 | 0.00 | 0.00 | 58 | 1017.1 |
| 20260510073544 | 60 | 209 | 9.0 | 14.0 | 0.00 | 0.00 | 0.00 | 58 | 1017.1 |
| 20260510073047 | 59 | 218 | 7.0 | 15.0 | 0.00 | 0.00 | 0.00 | 58 | 1017.1 |
| 20260510072542 | 59 | 331 | 6.0 | 14.0 | 0.00 | 0.00 | 0.00 | 58 | 1017.0 |
| 20260510072042 | 59 | 309 | 8.0 | 13.0 | 0.00 | 0.00 | 0.00 | 58 | 1017.0 |
| 20260510071539 | 59 | 298 | 5.0 | 12.0 | 0.00 | 0.00 | 0.00 | 59 | 1017.0 |
| 20260510071036 | 59 | 221 | 4.0 | 12.0 | 0.00 | 0.00 | 0.00 | 60 | 1017.1 |
| 20260510070535 | 58 | 293 | 5.0 | 13.0 | 0.00 | 0.00 | 0.00 | 61 | 1017.2 |
| 20260510064531 | 57 | 223 | 5.0 | 12.0 | 0.00 | 0.00 | 0.00 | 65 | 1017.2 |
| 20260510064053 | 56 | 229 | 4.0 | 12.0 | 0.00 | 0.00 | 0.00 | 66 | 1017.2 |
| 20260510063531 | 56 | 257 | 3.0 | 11.0 | 0.00 | 0.00 | 0.00 | 67 | 1017.3 |
| 20260510063026 | 56 | 257 | 6.0 | 11.0 | 0.00 | 0.00 | 0.00 | 68 | 1017.3 |
| 20260510062523 | 55 | 217 | 2.0 | 8.0 | 0.00 | 0.00 | 0.00 | 72 | 1017.3 |
| 20260510062023 | 55 | 218 | 5.0 | 8.0 | 0.00 | 0.00 | 0.00 | 73 | 1017.5 |
| 20260510061521 | 55 | 278 | 0.0 | 6.0 | 0.00 | 0.00 | 0.00 | 74 | 1017.5 |
| 20260510061020 | 55 | 205 | 0.0 | 0.0 | 0.00 | 0.00 | 0.00 | 75 | 1017.6 |
| 20260510060519 | 54 | 284 | 0.0 | 0.0 | 0.00 | 0.00 | 0.00 | 77 | 1017.6 |
| 20260510060017 | 54 | 267 | 0.0 | 0.0 | 0.00 | 0.00 | 0.00 | 77 | 1017.6 |
| 20260510055517 | 54 | 269 | 0.0 | 0.0 | 0.00 | 0.00 | 0.00 | 77 | 1017.6 |
| 20260510055015 | 54 | 202 | 0.0 | 0.0 | 0.00 | 0.00 | 0.00 | 78 | 1017.6 |
| 20260510054514 | 53 | 275 | 0.0 | 0.0 | 0.00 | 0.00 | 0.00 | 81 | 1017.6 |
| 20260510054013 | 52 | 219 | 0.0 | 0.0 | 0.00 | 0.00 | 0.00 | 84 | 1017.6 |
| 20260510053510 | 51 | 219 | 0.0 | 0.0 | 0.00 | 0.00 | 0.00 | 85 | 1017.7 |
| 20260510053009 | 51 | 206 | 0.0 | 0.0 | 0.00 | 0.00 | 0.00 | 88 | 1017.7 |
| 20260510052507 | 50 | 207 | 0.0 | 0.0 | 0.00 | 0.00 | 0.00 | 88 | 1017.7 |
| 20260510052006 | 49 | 206 | 0.0 | 0.0 | 0.00 | 0.00 | 0.00 | 89 | 1017.8 |
| 20260510051505 | 48 | 206 | 0.0 | 0.0 | 0.00 | 0.00 | 0.00 | 90 | 1017.8 |
| 20260510051003 | 48 | 206 | 0.0 | 0.0 | 0.00 | 0.00 | 0.00 | 91 | 1017.8 |
| 20260510050502 | 47 | 206 | 0.0 | 0.0 | 0.00 | 0.00 | 0.00 | 91 | 1017.8 |
| 20260510050101 | 47 | 205 | 0.0 | 0.0 | 0.00 | 0.00 | 0.00 | 91 | 1017.9 |
| 20260510045058 | 46 | 191 | 0.0 | 0.0 | 0.00 | 0.00 | 0.00 | 93 | 1017.9 |
| 20260510044611 | 46 | 191 | 0.0 | 0.0 | 0.00 | 0.00 | 0.00 | 93 | 1017.9 |
| 20260510044100 | 46 | 191 | 0.0 | 0.0 | 0.00 | 0.00 | 0.00 | 94 | 1018.0 |
| 20260510043554 | 45 | 191 | 0.0 | 0.0 | 0.00 | 0.00 | 0.00 | 94 | 1018.1 |
| 20260510043054 | 44 | 191 | 0.0 | 0.0 | 0.00 | 0.00 | 0.00 | 94 | 1018.1 |
| 20260510042552 | 43 | 191 | 0.0 | 0.0 | 0.00 | 0.00 | 0.00 | 95 | 1018.2 |
| 20260510042053 | 42 | 191 | 0.0 | 0.0 | 0.00 | 0.00 | 0.00 | 94 | 1018.2 |
| 20260510041556 | 41 | 283 | 0.0 | 0.0 | 0.00 | 0.00 | 0.00 | 94 | 1018.2 |
| 20260510041048 | 41 | 283 | 0.0 | 0.0 | 0.00 | 0.00 | 0.00 | 94 | 1018.2 |
| 20260510040549 | 40 | 284 | 0.0 | 0.0 | 0.00 | 0.00 | 0.00 | 93 | 1018.2 |
| 20260510040045 | 40 | 283 | 0.0 | 0.0 | 0.00 | 0.00 | 0.00 | 93 | 1018.3 |
| 20260510035544 | 40 | 283 | 0.0 | 0.0 | 0.00 | 0.00 | 0.00 | 93 | 1018.3 |
| 20260510035045 | 39 | 283 | 0.0 | 0.0 | 0.00 | 0.00 | 0.00 | 93 | 1018.3 |
| 20260510034547 | 39 | 283 | 0.0 | 0.0 | 0.00 | 0.00 | 0.00 | 93 | 1018.3 |
| 20260510034044 | 39 | 284 | 0.0 | 0.0 | 0.00 | 0.00 | 0.00 | 93 | 1018.3 |
| 20260510033542 | 39 | 283 | 0.0 | 0.0 | 0.00 | 0.00 | 0.00 | 93 | 1018.2 |
| 20260510033054 | 39 | 283 | 0.0 | 0.0 | 0.00 | 0.00 | 0.00 | 92 | 1018.2 |
| 20260510032543 | 39 | 284 | 0.0 | 0.0 | 0.00 | 0.00 | 0.00 | 92 | 1018.2 |
| 20260510032040 | 39 | 284 | 0.0 | 0.0 | 0.00 | 0.00 | 0.00 | 92 | 1018.3 |
| 20260510031540 | 39 | 283 | 0.0 | 0.0 | 0.00 | 0.00 | 0.00 | 92 | 1018.3 |
| 20260510031038 | 39 | 284 | 0.0 | 0.0 | 0.00 | 0.00 | 0.00 | 92 | 1018.4 |
| 20260510030538 | 39 | 284 | 0.0 | 0.0 | 0.00 | 0.00 | 0.00 | 92 | 1018.4 |
| 20260510030038 | 39 | 283 | 0.0 | 0.0 | 0.00 | 0.00 | 0.00 | 92 | 1018.4 |
| 20260510025538 | 39 | 284 | 0.0 | 0.0 | 0.00 | 0.00 | 0.00 | 92 | 1018.4 |
| 20260510025037 | 39 | 284 | 0.0 | 0.0 | 0.00 | 0.00 | 0.00 | 92 | 1018.5 |
| 20260510024542 | 39 | 283 | 0.0 | 0.0 | 0.00 | 0.00 | 0.00 | 92 | 1018.5 |
| 20260510024036 | 39 | 284 | 0.0 | 0.0 | 0.00 | 0.00 | 0.00 | 92 | 1018.5 |
| 20260510023536 | 39 | 284 | 0.0 | 0.0 | 0.00 | 0.00 | 0.00 | 92 | 1018.5 |
| 20260510023036 | 39 | 284 | 0.0 | 0.0 | 0.00 | 0.00 | 0.00 | 92 | 1018.5 |
| 20260510022536 | 39 | 284 | 0.0 | 0.0 | 0.00 | 0.00 | 0.00 | 91 | 1018.6 |
| 20260510022034 | 39 | 284 | 0.0 | 0.0 | 0.00 | 0.00 | 0.00 | 91 | 1018.6 |
| 20260510021538 | 39 | 283 | 0.0 | 0.0 | 0.00 | 0.00 | 0.00 | 91 | 1018.7 |
| 20260510021033 | 39 | 284 | 0.0 | 0.0 | 0.00 | 0.00 | 0.00 | 91 | 1018.7 |
| 20260510020533 | 40 | 284 | 0.0 | 0.0 | 0.00 | 0.00 | 0.00 | 92 | 1018.7 |
| 20260510020033 | 40 | 284 | 0.0 | 0.0 | 0.00 | 0.00 | 0.00 | 91 | 1018.7 |
| 20260510015532 | 40 | 284 | 0.0 | 0.0 | 0.00 | 0.00 | 0.00 | 91 | 1018.7 |
| 20260510015132 | 40 | 284 | 0.0 | 0.0 | 0.00 | 0.00 | 0.00 | 91 | 1018.7 |
| 20260510014535 | 40 | 283 | 0.0 | 0.0 | 0.00 | 0.00 | 0.00 | 91 | 1018.7 |
| 20260510014032 | 40 | 284 | 0.0 | 0.0 | 0.00 | 0.00 | 0.00 | 91 | 1018.6 |
| 20260510013532 | 40 | 284 | 0.0 | 0.0 | 0.00 | 0.00 | 0.00 | 91 | 1018.6 |
| 20260510013038 | 40 | 284 | 0.0 | 0.0 | 0.00 | 0.00 | 0.00 | 91 | 1018.5 |
| 20260510012530 | 40 | 284 | 0.0 | 0.0 | 0.00 | 0.00 | 0.00 | 91 | 1018.5 |
| 20260510012029 | 40 | 284 | 0.0 | 0.0 | 0.00 | 0.00 | 0.00 | 91 | 1018.5 |
| 20260510011529 | 40 | 284 | 0.0 | 0.0 | 0.00 | 0.00 | 0.00 | 91 | 1018.5 |
| 20260510011030 | 40 | 283 | 0.0 | 0.0 | 0.00 | 0.00 | 0.00 | 91 | 1018.5 |
| 20260510010528 | 40 | 284 | 0.0 | 0.0 | 0.00 | 0.00 | 0.00 | 90 | 1018.6 |
| 20260510010028 | 41 | 284 | 0.0 | 0.0 | 0.00 | 0.00 | 0.00 | 90 | 1018.6 |
| 20260510005528 | 41 | 284 | 0.0 | 0.0 | 0.00 | 0.00 | 0.00 | 90 | 1018.6 |
| 20260510005026 | 41 | 284 | 0.0 | 0.0 | 0.00 | 0.00 | 0.00 | 90 | 1018.6 |
| 20260510004526 | 41 | 283 | 0.0 | 0.0 | 0.00 | 0.00 | 0.00 | 90 | 1018.6 |
| 20260510004030 | 41 | 284 | 0.0 | 0.0 | 0.00 | 0.00 | 0.00 | 90 | 1018.7 |
| 20260510003525 | 41 | 284 | 0.0 | 0.0 | 0.00 | 0.00 | 0.00 | 90 | 1018.7 |
| 20260510003025 | 41 | 284 | 0.0 | 0.0 | 0.00 | 0.00 | 0.00 | 90 | 1018.6 |
| 20260510002524 | 41 | 284 | 0.0 | 0.0 | 0.00 | 0.00 | 0.00 | 90 | 1018.6 |
| 20260510002023 | 42 | 284 | 0.0 | 0.0 | 0.00 | 0.00 | 0.00 | 90 | 1018.7 |
| 20260510001534 | 42 | 284 | 0.0 | 0.0 | 0.00 | 0.00 | 0.00 | 90 | 1018.8 |
| 20260510001021 | 42 | 284 | 0.0 | 0.0 | 0.00 | 0.00 | 0.00 | 89 | 1018.9 |
| 20260510000520 | 42 | 284 | 0.0 | 0.0 | 0.00 | 0.00 | 0.00 | 89 | 1018.9 |
| 20260510000020 | 42 | 283 | 0.0 | 0.0 | 0.00 | 0.00 | 0.00 | 89 | 1019.0 |
| 20260509235519 | 42 | 284 | 0.0 | 0.0 | 0.00 | 0.00 | 0.00 | 89 | 1019.0 |
| 20260509235025 | 43 | 284 | 0.0 | 0.0 | 0.00 | 0.00 | 0.00 | 89 | 1019.0 |
| 20260509234620 | 43 | 284 | 0.0 | 0.0 | 0.00 | 0.00 | 0.00 | 89 | 1019.0 |
| 20260509234020 | 43 | 284 | 0.0 | 0.0 | 0.00 | 0.00 | 0.00 | 89 | 1019.0 |
| 20260509233516 | 43 | 284 | 0.0 | 0.0 | 0.00 | 0.00 | 0.00 | 89 | 1019.0 |
| 20260509233015 | 43 | 284 | 0.0 | 0.0 | 0.00 | 0.00 | 0.00 | 89 | 1018.9 |
| 20260509232515 | 43 | 284 | 0.0 | 0.0 | 0.00 | 0.00 | 0.00 | 88 | 1019.0 |
| 20260509232014 | 43 | 284 | 0.0 | 0.0 | 0.00 | 0.00 | 0.00 | 88 | 1019.1 |
| 20260509231514 | 44 | 284 | 0.0 | 0.0 | 0.00 | 0.00 | 0.00 | 88 | 1019.1 |
| 20260509231013 | 44 | 284 | 0.0 | 0.0 | 0.00 | 0.00 | 0.00 | 88 | 1019.1 |
| 20260509230512 | 44 | 284 | 0.0 | 0.0 | 0.00 | 0.00 | 0.00 | 87 | 1019.1 |
| 20260509230012 | 44 | 284 | 0.0 | 0.0 | 0.00 | 0.00 | 0.00 | 88 | 1019.2 |
| 20260509225512 | 44 | 284 | 0.0 | 0.0 | 0.00 | 0.00 | 0.00 | 87 | 1019.2 |
| 20260509225014 | 44 | 284 | 0.0 | 0.0 | 0.00 | 0.00 | 0.00 | 86 | 1019.2 |
| 20260509224510 | 44 | 284 | 0.0 | 0.0 | 0.00 | 0.00 | 0.00 | 87 | 1019.2 |
| 20260509224011 | 45 | 284 | 0.0 | 0.0 | 0.00 | 0.00 | 0.00 | 86 | 1019.3 |
| 20260509223509 | 45 | 284 | 0.0 | 0.0 | 0.00 | 0.00 | 0.00 | 86 | 1019.3 |
| 20260509223008 | 45 | 284 | 0.0 | 0.0 | 0.00 | 0.00 | 0.00 | 86 | 1019.2 |
| 20260509222507 | 45 | 284 | 0.0 | 0.0 | 0.00 | 0.00 | 0.00 | 85 | 1019.3 |
| 20260509222006 | 45 | 284 | 0.0 | 0.0 | 0.00 | 0.00 | 0.00 | 85 | 1019.3 |
| 20260509221506 | 45 | 284 | 0.0 | 0.0 | 0.00 | 0.00 | 0.00 | 85 | 1019.3 |
| 20260509221006 | 45 | 284 | 0.0 | 0.0 | 0.00 | 0.00 | 0.00 | 85 | 1019.4 |
| 20260509220606 | 46 | 284 | 0.0 | 0.0 | 0.00 | 0.00 | 0.00 | 85 | 1019.3 |
| 20260509220003 | 46 | 284 | 0.0 | 0.0 | 0.00 | 0.00 | 0.00 | 84 | 1019.4 |
| 20260509215503 | 46 | 284 | 0.0 | 0.0 | 0.00 | 0.00 | 0.00 | 84 | 1019.3 |
| 20260509215002 | 46 | 283 | 0.0 | 0.0 | 0.00 | 0.00 | 0.00 | 84 | 1019.3 |
| 20260509214502 | 46 | 284 | 0.0 | 0.0 | 0.00 | 0.00 | 0.00 | 84 | 1019.4 |
| 20260509213502 | 47 | 284 | 0.0 | 0.0 | 0.00 | 0.00 | 0.00 | 83 | 1019.3 |
| 20260509213107 | 47 | 284 | 0.0 | 0.0 | 0.00 | 0.00 | 0.00 | 83 | 1019.3 |
| 20260509212559 | 47 | 284 | 0.0 | 0.0 | 0.00 | 0.00 | 0.00 | 82 | 1019.3 |
| 20260509212059 | 47 | 284 | 0.0 | 0.0 | 0.00 | 0.00 | 0.00 | 82 | 1019.4 |
| 20260509211606 | 47 | 284 | 0.0 | 0.0 | 0.00 | 0.00 | 0.00 | 82 | 1019.4 |